Weather History for Durant, OK

Change the Weather History Date:

Tuesday, April 29, 2014

  Actual Average (KADM) Record (KADM)
Temperature  
Mean Temperature 60 °F -  
Max Temperature 71 °F 75 °F 89 °F (2013)
Min Temperature 50 °F 55 °F 42 °F (2008)
Degree Days  
Heating Degree Days 4    
Growing Degree Days 10 (Base 50)    
Moisture  
Dew Point 39 °F    
Average Humidity 44    
Maximum Humidity 72    
Minimum Humidity 25    
Precipitation  
Precipitation 0.00 in - - ()
Sea Level Pressure  
Sea Level Pressure 29.81 in    
Wind  
Wind Speed 9 mph (NW)    
Max Wind Speed 24 mph    
Max Gust Speed 34 mph    
Visibility 10 miles    
Events      
Averages and records for this station are not official NWS values.
T = Trace of Precipitation, MM = Missing Value Source: NWS Daily Summary

Daily Weather History Graph

Daily Weather History Graph

Search for Another Location

Airport:

Trip Planner

Search our weather history database for the weather conditions in past years. The results will help you decide how hot, cold, wet, or windy it might be!

Date:

Astronomy

Apr. 29, 2014 Rise Set
Actual Time 6:38 AM CDT 8:07 PM CDT
Civil Twilight 6:12 AM CDT 8:34 PM CDT
Nautical Twilight 5:40 AM CDT 9:06 PM CDT
Astronomical Twilight 5:07 AM CDT 9:39 PM CDT
Moon 6:57 AM CDT (4/29) 8:48 PM CDT (4/29)
Length of Visible Light 14h 22m
Length of Day
13h 29m
New Moon, 0% of the Moon is Illuminated
Apr 29
New Moon
May 6
First Quarter
May 14
Full
May 21
Last Quarter
May 28
New

Hourly Weather History & Observations

Time (CDT) Temp. Dew Point Humidity Pressure Visibility Wind Dir Wind Speed Gust Speed Precip Events Conditions
12:15 AM 59.0 °F 46.4 °F 63% 29.70 in 10.0 mi Calm Calm - N/A   Clear
12:35 AM 57.2 °F 46.4 °F 67% 29.70 in 10.0 mi Calm Calm - N/A   Clear
12:55 AM 57.2 °F 46.4 °F 67% 29.70 in 10.0 mi Calm Calm - N/A   Clear
1:15 AM 59.0 °F 46.4 °F 63% 29.70 in 10.0 mi Calm Calm - N/A   Clear
1:35 AM 59.0 °F 46.4 °F 63% 29.69 in 10.0 mi Calm Calm - N/A   Clear
1:55 AM 59.0 °F 48.2 °F 67% 29.69 in 10.0 mi Calm Calm - N/A   Scattered Clouds
2:15 AM 59.0 °F 50.0 °F 72% 29.69 in 10.0 mi NNW 4.6 mph - N/A   Mostly Cloudy
2:35 AM 59.0 °F 50.0 °F 72% 29.69 in 10.0 mi NW 4.6 mph - N/A   Overcast
2:55 AM 59.0 °F 48.2 °F 67% 29.70 in 10.0 mi NW 3.5 mph - N/A   Mostly Cloudy
3:15 AM 60.8 °F 46.4 °F 59% 29.70 in 10.0 mi NNW 5.8 mph - N/A   Overcast
3:55 AM 60.8 °F 42.8 °F 52% 29.74 in 10.0 mi NNW 11.5 mph 18.4 mph N/A   Overcast
4:15 AM 62.6 °F 39.2 °F 42% 29.74 in 10.0 mi NNW 8.1 mph 19.6 mph N/A   Overcast
4:35 AM 62.6 °F 39.2 °F 42% 29.74 in 10.0 mi NNW 10.4 mph - N/A   Overcast
4:55 AM 60.8 °F 41.0 °F 48% 29.75 in 10.0 mi NNW 10.4 mph - N/A   Mostly Cloudy
5:15 AM 60.8 °F 37.4 °F 42% 29.73 in 10.0 mi North 17.3 mph 21.9 mph N/A   Scattered Clouds
5:35 AM 60.8 °F 35.6 °F 39% 29.74 in 10.0 mi NNW 11.5 mph 17.3 mph N/A   Scattered Clouds
5:55 AM 60.8 °F 35.6 °F 39% 29.75 in 10.0 mi NNW 10.4 mph 19.6 mph N/A   Clear
6:15 AM 60.8 °F 35.6 °F 39% 29.76 in 10.0 mi NNW 10.4 mph - N/A   Mostly Cloudy
6:35 AM 60.8 °F 35.6 °F 39% 29.77 in 10.0 mi NNW 6.9 mph - N/A   Scattered Clouds
6:55 AM 59.0 °F 37.4 °F 45% 29.77 in 10.0 mi NW 10.4 mph - N/A   Clear
7:15 AM 59.0 °F 37.4 °F 45% 29.78 in 10.0 mi NW 6.9 mph - N/A   Scattered Clouds
7:35 AM 59.0 °F 37.4 °F 45% 29.79 in 10.0 mi NW 8.1 mph - N/A   Scattered Clouds
7:55 AM 59.0 °F 37.4 °F 45% 29.80 in 10.0 mi WNW 8.1 mph - N/A   Clear
8:15 AM 59.0 °F 37.4 °F 45% 29.80 in 10.0 mi WNW 6.9 mph - N/A   Clear
8:35 AM 60.8 °F 37.4 °F 42% 29.81 in 10.0 mi WNW 10.4 mph - N/A   Clear
8:55 AM 60.8 °F 37.4 °F 42% 29.81 in 10.0 mi NW 16.1 mph - N/A   Clear
9:15 AM 62.6 °F 37.4 °F 39% 29.81 in 10.0 mi WNW 12.7 mph 19.6 mph N/A   Clear
9:35 AM 64.4 °F 35.6 °F 34% 29.80 in 10.0 mi NW 19.6 mph 28.8 mph N/A   Clear
9:55 AM 66.2 °F 35.6 °F 32% 29.80 in 10.0 mi NW 17.3 mph 25.3 mph N/A   Clear
10:15 AM 68.0 °F 33.8 °F 28% 29.80 in 10.0 mi NW 17.3 mph 27.6 mph N/A   Clear
10:35 AM 68.0 °F 33.8 °F 28% 29.81 in 10.0 mi WNW 17.3 mph 27.6 mph N/A   Clear
10:55 AM 68.0 °F 35.6 °F 30% 29.80 in 10.0 mi NNW 24.2 mph 28.8 mph N/A   Clear
11:15 AM 69.8 °F 35.6 °F 28% 29.81 in 10.0 mi NW 17.3 mph 24.2 mph N/A   Clear
11:35 AM 69.8 °F 33.8 °F 27% 29.81 in 10.0 mi NW 15.0 mph 26.5 mph N/A   Clear
11:55 AM 69.8 °F 33.8 °F 27% 29.82 in 10.0 mi WNW 18.4 mph 28.8 mph N/A   Clear
12:15 PM 69.8 °F 33.8 °F 27% 29.81 in 10.0 mi NW 19.6 mph 26.5 mph N/A   Clear
12:35 PM 69.8 °F 33.8 °F 27% 29.81 in 10.0 mi WNW 17.3 mph 24.2 mph N/A   Clear
12:55 PM 71.6 °F 33.8 °F 25% 29.81 in 10.0 mi WNW 20.7 mph 26.5 mph N/A   Clear
1:15 PM 69.8 °F 35.6 °F 28% 29.81 in 10.0 mi WNW 17.3 mph 28.8 mph N/A   Clear
1:35 PM 71.6 °F 35.6 °F 27% 29.81 in 10.0 mi WNW 18.4 mph 26.5 mph N/A   Clear
1:55 PM 71.6 °F 35.6 °F 27% 29.81 in 10.0 mi WNW 15.0 mph 26.5 mph N/A   Clear
2:15 PM 71.6 °F 35.6 °F 27% 29.81 in 10.0 mi WNW 16.1 mph 23.0 mph N/A   Scattered Clouds
2:35 PM 71.6 °F 35.6 °F 27% 29.81 in 10.0 mi NW 20.7 mph 26.5 mph N/A   Scattered Clouds
2:55 PM 71.6 °F 37.4 °F 29% 29.81 in 10.0 mi NW 23.0 mph 32.2 mph N/A   Scattered Clouds
3:15 PM 71.6 °F 37.4 °F 29% 29.82 in 10.0 mi NW 19.6 mph 29.9 mph N/A   Scattered Clouds
3:35 PM 69.8 °F 37.4 °F 31% 29.82 in 10.0 mi WNW 21.9 mph 32.2 mph N/A   Scattered Clouds
3:55 PM 69.8 °F 35.6 °F 28% 29.83 in 10.0 mi WNW 20.7 mph 34.5 mph N/A   Clear
4:15 PM 68.0 °F 37.4 °F 33% 29.83 in 10.0 mi WNW 16.1 mph 31.1 mph N/A   Scattered Clouds
4:35 PM 68.0 °F 37.4 °F 33% 29.83 in 10.0 mi WNW 15.0 mph 29.9 mph N/A   Clear
4:55 PM 68.0 °F 37.4 °F 33% 29.84 in 10.0 mi WNW 19.6 mph 29.9 mph N/A   Scattered Clouds
5:35 PM 66.2 °F 37.4 °F 35% 29.86 in 10.0 mi NW 17.3 mph 29.9 mph N/A   Scattered Clouds
5:55 PM 64.4 °F 37.4 °F 37% 29.86 in 10.0 mi NW 20.7 mph 26.5 mph N/A   Scattered Clouds
6:15 PM 64.4 °F 37.4 °F 37% 29.87 in 10.0 mi WNW 17.3 mph 25.3 mph N/A   Scattered Clouds
6:35 PM 62.6 °F 35.6 °F 37% 29.87 in 10.0 mi WNW 16.1 mph 25.3 mph N/A   Mostly Cloudy
6:55 PM 62.6 °F 37.4 °F 39% 29.88 in 10.0 mi NW 12.7 mph - N/A   Overcast
7:15 PM 62.6 °F 37.4 °F 39% 29.89 in 10.0 mi NW 16.1 mph - N/A   Overcast
7:35 PM 60.8 °F 37.4 °F 42% 29.89 in 10.0 mi NW 13.8 mph 21.9 mph N/A   Mostly Cloudy
7:55 PM 59.0 °F 37.4 °F 45% 29.90 in 10.0 mi NW 12.7 mph 17.3 mph N/A   Scattered Clouds
8:15 PM 59.0 °F 37.4 °F 45% 29.91 in 10.0 mi NW 9.2 mph - N/A   Scattered Clouds
8:35 PM 57.2 °F 39.2 °F 51% 29.91 in 10.0 mi NW 8.1 mph - N/A   Clear
9:15 PM 55.4 °F 41.0 °F 58% 29.93 in 10.0 mi NW 4.6 mph - N/A   Clear
9:35 PM 53.6 °F 41.0 °F 62% 29.93 in 10.0 mi NW 4.6 mph - N/A   Clear
9:55 PM 53.6 °F 37.4 °F 54% 29.94 in 10.0 mi Calm Calm - N/A   Clear
10:15 PM 51.8 °F 39.2 °F 62% 29.94 in 10.0 mi NNW 3.5 mph - N/A   Clear
10:35 PM 51.8 °F 41.0 °F 67% 29.95 in 10.0 mi NW 5.8 mph - N/A   Clear
10:55 PM 51.8 °F 37.4 °F 58% 29.95 in 10.0 mi Calm Calm - N/A   Clear
11:15 PM 51.8 °F 39.2 °F 62% 29.95 in 10.0 mi Calm Calm - N/A   Clear
11:35 PM 50.0 °F 37.4 °F 62% 29.95 in 10.0 mi Calm Calm - N/A   Clear
11:55 PM 50.0 °F 41.0 °F 71% 29.95 in 10.0 mi West 3.5 mph - N/A   Scattered Clouds